Home   Weather   Prievidza   Past weeks

Flag for Slovakia Past Weather in Prievidza, Slovakia — Yesterday and Last 2 Weeks

46 °F

Rain. Low clouds.

Feels Like: 46 °F
Forecast: 33 / 52 °F
Wind: 1 mph from Northwest

Location: Prievidza

Current Time: Oct 21, 2016 at 11:12:58 AM

Latest Report: Oct 21, 2016 at 10:00 AM

Visibility: 2 mi

Pressure: 29.98 "Hg

Humidity: 97%

Dew Point: 45 °F

Location of PrievidzaLocation

Past Weather in Prievidza — Graph


Prievidza Temperature Yesterday

Maximum temperature yesterday: 47 °F (at 3:00 AM)
Minimum temperature yesterday: 45 °F (at 8:00 PM)
Average temperature yesterday: 46 °F

High & Low Weather Summary for the Past Weeks

High66 °F (Oct 15, 3:00 PM)97% (Oct 9, 7:00 AM)30.37 "Hg (Oct 9, 7:00 AM)
Low30 °F (Oct 7, 7:00 AM)46% (Oct 15, 3:00 PM)29.86 "Hg (Oct 12, 1:00 PM)
Average47 °F79%30.11 "Hg
* Reported Oct 6 11:00 AM — Oct 21 10:00 AM, Prievidza, Weather by CustomWeather, © 2016

Note: Actual official high and low records may vary slightly from our data, if they occured in-between our weather recording intervals... More about our weather records


Prievidza Weather History for the Previous 24 Hours

Scroll right to see more
Time TempWeatherWind HumidityBarometerVisibility
10:00 AM
Fri, Oct 21
46 °FRain. Low clouds.1 mph97%29.98 "Hg2 mi
9:00 AM46 °FRain. Overcast.1 mph97%29.98 "Hg4 mi
8:00 AM46 °FLight rain. Low clouds.1 mph97%29.97 "Hg7 mi
7:00 AM46 °FFreezing rain. Overcast.No wind97%29.96 "Hg2 mi
6:00 AM46 °FFog.N/A97%29.97 "Hg2 mi
5:00 AM46 °FFog.No wind97%29.97 "Hg2 mi
4:00 AM46 °FFog.No wind97%29.98 "Hg3 mi
3:00 AM46 °FFog.1 mph97%29.98 "Hg4 mi
2:00 AM46 °FFog.No wind97%29.98 "Hg2 mi
12:00 AM46 °FDrizzle. Overcast.1 mph97%29.99 "Hg1 mi
11:00 PM
Thu, Oct 20
46 °FDrizzle. Overcast.2 mph97%29.99 "Hg2 mi
10:00 PM46 °FLight rain. Low clouds.2 mph96%29.99 "Hg3 mi
9:00 PM45 °FLight rain. Overcast.N/A96%29.99 "Hg6 mi
8:00 PM45 °FRain. Overcast.N/A95%29.99 "Hg2 mi
7:00 PM46 °FRain. Low clouds.N/A95%30.00 "Hg4 mi
6:00 PM46 °FRain. Low clouds.N/A93%30.00 "Hg4 mi
3:00 PM46 °FRain. Low clouds.3 mph89%30.00 "Hg6 mi
2:00 PM46 °FRain. Low clouds.2 mph92%30.01 "Hg6 mi
1:00 PM46 °FRain. Low clouds.2 mph89%30.03 "Hg6 mi
12:00 PM46 °FRain. Low clouds.N/A90%30.04 "Hg7 mi
11:00 AM46 °FRain. Low clouds.2 mph92%30.06 "Hg6 mi
Weather by CustomWeather, © 2016

See weather overviewHow to use our weather pages